Location: Dead Woman Crossing
(43.5369°N, 106.3228°W)
Time: 22:48:06
(UTC+00:00)

NANOSAT C BR1 - Pass Details

Date: 01 July 2022
Orbit: 584 x 599 km, 98.0° (Epoch: 18 August)

Event Time Altitude Azimuth Distance (km) Brightness Sun altitude
Rises 09:12:17 0° 13° (NNE) 2,851 ? -17.6°
Reaches altitude 10° 09:14:27 10° 15° (NNE) 1,946 ? -17.4°
Maximum altitude 09:18:41 82° 101° (ESE) 612 ? -17.0°
Enters shadow 09:20:41 31° 188° (S) 1,066 ? -16.8°
